| time (UTC) | temp F | wind direction | speed MPH | gust MPH | rain 1hr in | rain 24hr in | rain mn in | humidity % | barometer mb |
| 20260905101006 | 68 | 9 | 2.0 | 7.0 | 0.12 | 1.90 | 1.47 | 96 | 1015.8 |
| 20260905100510 | 68 | 298 | 2.0 | 7.0 | 0.15 | 1.89 | 1.46 | 96 | 1016.0 |
| 20260905100018 | 68 | 281 | 1.0 | 6.0 | 0.22 | 1.89 | 1.46 | 96 | 1016.1 |
| 20260905095512 | 68 | 256 | 2.0 | 6.0 | 0.40 | 1.88 | 1.45 | 96 | 1016.1 |
| 20260905095017 | 67 | 261 | 2.0 | 7.0 | 0.49 | 1.86 | 1.43 | 96 | 1016.3 |
| 20260905094528 | 67 | 315 | 1.0 | 7.0 | 0.48 | 1.85 | 1.42 | 96 | 1016.1 |
| 20260905094017 | 67 | 317 | 0.0 | 5.0 | 0.48 | 1.84 | 1.41 | 96 | 1015.7 |
| 20260905093501 | 67 | 296 | 1.0 | 5.0 | 0.49 | 1.83 | 1.40 | 96 | 1015.5 |
| 20260905093005 | 67 | 317 | 1.0 | 6.0 | 0.47 | 1.81 | 1.38 | 96 | 1015.5 |
| 20260905092504 | 67 | 336 | 2.0 | 6.0 | 0.46 | 1.80 | 1.37 | 95 | 1015.6 |
| 20260905092004 | 67 | 342 | 2.0 | 6.0 | 0.46 | 1.80 | 1.37 | 96 | 1015.5 |
| 20260905091514 | 68 | 297 | 2.0 | 6.0 | 0.46 | 1.79 | 1.36 | 96 | 1016.0 |
| 20260905091006 | 68 | 352 | 2.0 | 6.0 | 0.46 | 1.78 | 1.35 | 96 | 1015.7 |
| 20260905090506 | 68 | 352 | 3.0 | 12.0 | 0.43 | 1.74 | 1.31 | 96 | 1015.4 |
| 20260905090017 | 68 | 246 | 2.0 | 12.0 | 0.40 | 1.67 | 1.24 | 95 | 1015.6 |
| 20260905085509 | 68 | 273 | 6.0 | 12.0 | 0.34 | 1.48 | 1.04 | 95 | 1015.8 |
| 20260905085010 | 68 | 200 | 7.0 | 11.0 | 0.39 | 1.37 | 0.94 | 95 | 1015.7 |
| 20260905084532 | 68 | 34 | 2.0 | 6.0 | 0.43 | 1.37 | 0.94 | 96 | 1013.3 |
| 20260905084012 | 68 | 169 | 0.0 | 4.0 | 0.45 | 1.36 | 0.93 | 95 | 1013.0 |
| 20260905083517 | 68 | 340 | 2.0 | 4.0 | 0.44 | 1.34 | 0.91 | 96 | 1012.8 |
| 20260905083028 | 68 | 222 | 2.0 | 4.0 | 0.45 | 1.34 | 0.91 | 96 | 1013.4 |
| 20260905082504 | 68 | 256 | 1.0 | 2.0 | 0.46 | 1.34 | 0.91 | 95 | 1013.6 |
| 20260905082005 | 68 | 351 | 0.0 | 2.0 | 0.47 | 1.34 | 0.91 | 95 | 1013.7 |
| 20260905081508 | 68 | 333 | 0.0 | 2.0 | 0.48 | 1.33 | 0.90 | 94 | 1014.1 |
| 20260905081006 | 68 | 58 | 0.0 | 2.0 | 0.55 | 1.32 | 0.89 | 94 | 1014.3 |
| 20260905080508 | 69 | 58 | 0.0 | 8.0 | 0.63 | 1.31 | 0.88 | 93 | 1014.0 |
| 20260905080027 | 69 | 178 | 2.0 | 12.0 | 0.72 | 1.27 | 0.84 | 92 | 1013.9 |
| 20260905075506 | 69 | 301 | 2.0 | 12.0 | 0.67 | 1.14 | 0.71 | 94 | 1014.2 |
| 20260905075012 | 69 | 287 | 4.0 | 7.0 | 0.55 | 0.98 | 0.55 | 95 | 1014.6 |
| 20260905074523 | 69 | 282 | 3.0 | 9.0 | 0.51 | 0.94 | 0.51 | 95 | 1014.4 |
| 20260905074010 | 69 | 348 | 3.0 | 9.0 | 0.48 | 0.91 | 0.48 | 95 | 1014.4 |
| 20260905073512 | 69 | 345 | 1.0 | 10.0 | 0.47 | 0.90 | 0.47 | 96 | 1014.8 |
| 20260905073036 | 69 | 22 | 3.0 | 11.0 | 0.46 | 0.89 | 0.46 | 96 | 1014.6 |
| 20260905072514 | 70 | 177 | 3.0 | 12.0 | 0.45 | 0.88 | 0.45 | 96 | 1014.7 |
| 20260905072016 | 70 | 170 | 4.0 | 12.0 | 0.44 | 0.87 | 0.44 | 96 | 1014.6 |
| 20260905071528 | 71 | 281 | 2.0 | 11.0 | 0.42 | 0.85 | 0.42 | 97 | 1014.8 |
| 20260905071009 | 72 | 165 | 2.0 | 6.0 | 0.34 | 0.77 | 0.34 | 98 | 1014.4 |
| 20260905070507 | 71 | 325 | 1.0 | 5.0 | 0.25 | 0.68 | 0.25 | 98 | 1014.3 |
| 20260905070024 | 71 | 270 | 2.0 | 5.0 | 0.12 | 0.55 | 0.12 | 97 | 1014.2 |
| 20260905065506 | 71 | 275 | 1.0 | 2.0 | 0.04 | 0.47 | 0.04 | 97 | 1014.4 |
| 20260905065012 | 71 | 273 | 1.0 | 2.0 | 0.00 | 0.43 | 0.00 | 97 | 1014.2 |
| 20260905064536 | 71 | 331 | 0.0 | 2.0 | 0.00 | 0.43 | 0.00 | 98 | 1013.9 |
| 20260905064014 | 71 | 331 | 0.0 | 2.0 | 0.00 | 0.43 | 0.00 | 97 | 1013.8 |
| 20260905063512 | 71 | 331 | 0.0 | 2.0 | 0.00 | 0.43 | 0.00 | 97 | 1014.0 |
| 20260905063026 | 71 | 331 | 0.0 | 2.0 | 0.00 | 0.43 | 0.00 | 97 | 1013.4 |
| 20260905062512 | 71 | 331 | 0.0 | 2.0 | 0.00 | 0.43 | 0.00 | 97 | 1014.0 |
| 20260905062013 | 70 | 331 | 1.0 | 2.0 | 0.00 | 0.43 | 0.00 | 97 | 1014.2 |
| 20260905061530 | 70 | 331 | 0.0 | 2.0 | 0.00 | 0.43 | 0.00 | 97 | 1013.8 |
| 20260905061016 | 70 | 331 | 0.0 | 2.0 | 0.00 | 0.43 | 0.00 | 97 | 1013.6 |
| 20260905060517 | 70 | 331 | 0.0 | 2.0 | 0.00 | 0.43 | 0.00 | 97 | 1013.7 |
| 20260905060013 | 70 | 331 | 0.0 | 0.0 | 0.00 | 0.43 | 0.00 | 97 | 1014.0 |
| 20260905055505 | 70 | 331 | 0.0 | 0.0 | 0.00 | 0.43 | 0.00 | 97 | 1013.9 |
| 20260905055012 | 70 | 331 | 0.0 | 2.0 | 0.00 | 0.43 | 0.00 | 97 | 1014.2 |
| 20260905054531 | 70 | 331 | 0.0 | 2.0 | 0.00 | 0.43 | 0.00 | 97 | 1014.3 |
| 20260905054013 | 70 | 331 | 0.0 | 2.0 | 0.00 | 0.43 | 0.00 | 97 | 1014.4 |
| 20260905053508 | 71 | 331 | 0.0 | 2.0 | 0.00 | 0.43 | 0.00 | 97 | 1014.3 |
| 20260905053027 | 71 | 331 | 0.0 | 2.0 | 0.00 | 0.43 | 0.00 | 97 | 1014.2 |
| 20260905052513 | 71 | 331 | 0.0 | 2.0 | 0.00 | 0.43 | 0.00 | 97 | 1014.2 |
| 20260905052014 | 70 | 331 | 0.0 | 0.0 | 0.00 | 0.43 | 0.00 | 97 | 1014.2 |
| 20260905051539 | 70 | 331 | 0.0 | 0.0 | 0.00 | 0.43 | 0.00 | 97 | 1014.4 |
| 20260905051013 | 70 | 331 | 0.0 | 0.0 | 0.00 | 0.43 | 0.00 | 97 | 1014.7 |
| 20260905050517 | 70 | 331 | 0.0 | 0.0 | 0.00 | 0.43 | 0.00 | 97 | 1014.7 |
| 20260905050033 | 70 | 331 | 0.0 | 2.0 | 0.00 | 0.43 | 0.00 | 97 | 1014.7 |
| 20260905045517 | 70 | 331 | 0.0 | 2.0 | 0.00 | 0.43 | 0.00 | 97 | 1014.7 |
| 20260905045009 | 70 | 331 | 0.0 | 0.0 | 0.00 | 0.43 | 0.00 | 97 | 1014.7 |
| 20260905044514 | 70 | 331 | 0.0 | 0.0 | 0.00 | 0.43 | 0.00 | 97 | 1014.7 |
| 20260905044008 | 70 | 331 | 0.0 | 0.0 | 0.00 | 0.43 | 0.00 | 97 | 1014.6 |
| 20260905043510 | 70 | 331 | 0.0 | 0.0 | 0.00 | 0.43 | 0.00 | 97 | 1014.7 |
| 20260905043024 | 70 | 331 | 0.0 | 0.0 | 0.00 | 0.43 | 0.00 | 97 | 1014.7 |
| 20260905042510 | 70 | 331 | 0.0 | 0.0 | 0.00 | 0.43 | 0.00 | 97 | 1015.0 |
| 20260905042012 | 70 | 331 | 0.0 | 0.0 | 0.00 | 0.43 | 0.00 | 97 | 1015.2 |
| 20260905041526 | 70 | 331 | 0.0 | 0.0 | 0.00 | 0.43 | 0.00 | 97 | 1015.3 |
| 20260905041015 | 70 | 331 | 0.0 | 0.0 | 0.00 | 0.43 | 0.00 | 96 | 1015.2 |
| 20260905040516 | 70 | 331 | 0.0 | 0.0 | 0.00 | 0.43 | 0.00 | 97 | 1015.0 |
| 20260905040034 | 70 | 331 | 0.0 | 0.0 | 0.00 | 0.43 | 0.00 | 96 | 1015.1 |
| 20260905035517 | 71 | 331 | 0.0 | 0.0 | 0.00 | 0.43 | 0.43 | 96 | 1015.2 |
| 20260905035017 | 71 | 331 | 0.0 | 0.0 | 0.00 | 0.43 | 0.43 | 96 | 1015.2 |
| 20260905034535 | 71 | 331 | 0.0 | 0.0 | 0.00 | 0.43 | 0.43 | 96 | 1015.3 |
| 20260905034017 | 71 | 331 | 0.0 | 0.0 | 0.00 | 0.43 | 0.43 | 96 | 1015.2 |
| 20260905033508 | 71 | 331 | 0.0 | 0.0 | 0.00 | 0.43 | 0.43 | 96 | 1015.3 |
| 20260905033025 | 71 | 331 | 0.0 | 0.0 | 0.00 | 0.43 | 0.43 | 96 | 1015.3 |
| 20260905032513 | 71 | 331 | 0.0 | 0.0 | 0.00 | 0.43 | 0.43 | 96 | 1015.3 |
| 20260905032010 | 71 | 331 | 0.0 | 0.0 | 0.00 | 0.43 | 0.43 | 96 | 1015.2 |
| 20260905031527 | 71 | 331 | 0.0 | 0.0 | 0.00 | 0.43 | 0.43 | 96 | 1015.2 |
| 20260905031013 | 71 | 331 | 0.0 | 1.0 | 0.00 | 0.43 | 0.43 | 96 | 1015.2 |
| 20260905030514 | 71 | 331 | 0.0 | 1.0 | 0.00 | 0.43 | 0.43 | 96 | 1015.3 |
| 20260905030031 | 71 | 331 | 0.0 | 0.0 | 0.00 | 0.43 | 0.43 | 96 | 1015.3 |
| 20260905025516 | 71 | 331 | 0.0 | 0.0 | 0.00 | 0.43 | 0.43 | 96 | 1015.2 |
| 20260905025016 | 71 | 331 | 0.0 | 0.0 | 0.00 | 0.43 | 0.43 | 96 | 1015.3 |
| 20260905024533 | 71 | 331 | 0.0 | 0.0 | 0.00 | 0.43 | 0.43 | 96 | 1015.3 |
| 20260905024019 | 71 | 331 | 0.0 | 0.0 | 0.00 | 0.43 | 0.43 | 96 | 1015.3 |
| 20260905023517 | 71 | 331 | 0.0 | 0.0 | 0.00 | 0.43 | 0.43 | 96 | 1015.3 |
| 20260905023032 | 71 | 331 | 0.0 | 0.0 | 0.00 | 0.43 | 0.43 | 96 | 1015.3 |
| 20260905022513 | 71 | 331 | 0.0 | 0.0 | 0.00 | 0.43 | 0.43 | 96 | 1015.5 |
| 20260905022010 | 72 | 331 | 0.0 | 0.0 | 0.00 | 0.43 | 0.43 | 95 | 1015.3 |
| 20260905021535 | 72 | 331 | 0.0 | 0.0 | 0.00 | 0.43 | 0.43 | 96 | 1015.3 |
| 20260905021012 | 72 | 331 | 0.0 | 0.0 | 0.00 | 0.43 | 0.43 | 96 | 1015.2 |
| 20260905020512 | 72 | 331 | 0.0 | 0.0 | 0.00 | 0.43 | 0.43 | 95 | 1015.2 |
| 20260905020029 | 72 | 331 | 0.0 | 0.0 | 0.00 | 0.43 | 0.43 | 95 | 1015.2 |
| 20260905015514 | 72 | 331 | 0.0 | 0.0 | 0.00 | 0.43 | 0.43 | 95 | 1015.2 |
| 20260905015016 | 72 | 331 | 0.0 | 0.0 | 0.00 | 0.43 | 0.43 | 95 | 1015.1 |
| 20260905014544 | 72 | 331 | 0.0 | 0.0 | 0.00 | 0.43 | 0.43 | 95 | 1015.1 |
| 20260905014017 | 72 | 331 | 0.0 | 0.0 | 0.00 | 0.43 | 0.43 | 95 | 1015.0 |
| 20260905013521 | 72 | 331 | 0.0 | 0.0 | 0.00 | 0.43 | 0.43 | 95 | 1015.1 |
| 20260905013032 | 72 | 331 | 0.0 | 0.0 | 0.00 | 0.43 | 0.43 | 95 | 1015.0 |
| 20260905012520 | 72 | 331 | 0.0 | 0.0 | 0.00 | 0.43 | 0.43 | 95 | 1015.0 |
| 20260905012018 | 72 | 331 | 0.0 | 0.0 | 0.00 | 0.43 | 0.43 | 94 | 1014.9 |
| 20260905011523 | 73 | 331 | 0.0 | 1.0 | 0.00 | 0.43 | 0.43 | 94 | 1014.9 |
| 20260905011011 | 73 | 331 | 0.0 | 1.0 | 0.00 | 0.43 | 0.43 | 94 | 1015.0 |
| 20260905010511 | 73 | 331 | 0.0 | 0.0 | 0.00 | 0.43 | 0.43 | 93 | 1014.9 |
| 20260905010030 | 73 | 331 | 0.0 | 0.0 | 0.00 | 0.43 | 0.43 | 93 | 1014.8 |
| 20260905005514 | 73 | 331 | 0.0 | 2.0 | 0.00 | 0.43 | 0.43 | 93 | 1014.7 |
| 20260905005014 | 73 | 331 | 0.0 | 2.0 | 0.00 | 0.43 | 0.43 | 93 | 1014.9 |
| 20260905004531 | 74 | 331 | 0.0 | 2.0 | 0.00 | 0.43 | 0.43 | 93 | 1014.8 |
| 20260905004016 | 74 | 331 | 0.0 | 0.0 | 0.00 | 0.43 | 0.43 | 92 | 1014.8 |
| 20260905003520 | 74 | 331 | 0.0 | 2.0 | 0.00 | 0.43 | 0.43 | 92 | 1014.8 |
| 20260905003036 | 74 | 331 | 0.0 | 2.0 | 0.00 | 0.43 | 0.43 | 92 | 1014.8 |
| 20260905002515 | 75 | 331 | 0.0 | 2.0 | 0.00 | 0.43 | 0.43 | 91 | 1014.7 |
| 20260905002020 | 75 | 331 | 0.0 | 0.0 | 0.00 | 0.43 | 0.43 | 91 | 1014.8 |
| 20260905001532 | 75 | 331 | 0.0 | 2.0 | 0.00 | 0.43 | 0.43 | 90 | 1014.8 |
| 20260905001018 | 76 | 331 | 0.0 | 2.0 | 0.00 | 0.43 | 0.43 | 90 | 1014.7 |
| 20260905000520 | 76 | 331 | 0.0 | 2.0 | 0.00 | 0.43 | 0.43 | 90 | 1014.6 |
| 20260905000025 | 76 | 331 | 0.0 | 2.0 | 0.00 | 0.43 | 0.43 | 89 | 1014.7 |
| 20260904235514 | 77 | 331 | 0.0 | 2.0 | 0.00 | 0.43 | 0.43 | 88 | 1014.7 |
| 20260904235012 | 77 | 331 | 0.0 | 2.0 | 0.00 | 0.43 | 0.43 | 88 | 1014.6 |
| 20260904234531 | 78 | 331 | 0.0 | 2.0 | 0.00 | 0.43 | 0.43 | 87 | 1014.4 |
| 20260904234016 | 78 | 331 | 0.0 | 2.0 | 0.00 | 0.43 | 0.43 | 87 | 1014.5 |
| 20260904233515 | 78 | 331 | 0.0 | 2.0 | 0.00 | 0.43 | 0.43 | 84 | 1014.7 |
| 20260904233031 | 79 | 331 | 0.0 | 2.0 | 0.00 | 0.43 | 0.43 | 84 | 1014.6 |
| 20260904232517 | 79 | 331 | 0.0 | 2.0 | 0.00 | 0.43 | 0.43 | 85 | 1014.8 |
| 20260904232016 | 79 | 331 | 1.0 | 2.0 | 0.00 | 0.43 | 0.43 | 84 | 1014.7 |
| 20260904231532 | 79 | 202 | 0.0 | 2.0 | 0.00 | 0.43 | 0.43 | 83 | 1014.7 |
| 20260904231019 | 79 | 202 | 0.0 | 2.0 | 0.00 | 0.43 | 0.43 | 83 | 1014.5 |
| 20260904230518 | 79 | 202 | 0.0 | 3.0 | 0.00 | 0.43 | 0.43 | 82 | 1014.4 |
| 20260904230033 | 80 | 123 | 1.0 | 3.0 | 0.00 | 0.43 | 0.43 | 82 | 1014.5 |
| 20260904225519 | 80 | 139 | 2.0 | 5.0 | 0.00 | 0.43 | 0.43 | 82 | 1014.4 |
| 20260904225012 | 80 | 115 | 1.0 | 5.0 | 0.00 | 0.43 | 0.43 | 82 | 1014.4 |
| 20260904224504 | 80 | 182 | 1.0 | 3.0 | 0.00 | 0.43 | 0.43 | 82 | 1014.4 |
| 20260904224001 | 80 | 191 | 1.0 | 3.0 | 0.00 | 0.43 | 0.43 | 82 | 1014.5 |
| 20260904223502 | 80 | 161 | 0.0 | 2.0 | 0.00 | 0.43 | 0.43 | 83 | 1014.5 |
| 20260904223008 | 79 | 191 | 1.0 | 2.0 | 0.00 | 0.43 | 0.43 | 82 | 1014.3 |
| 20260904222508 | 79 | 163 | 1.0 | 4.0 | 0.00 | 0.43 | 0.43 | 81 | 1014.2 |
| 20260904222007 | 80 | 216 | 2.0 | 4.0 | 0.00 | 0.43 | 0.43 | 81 | 1014.2 |
| 20260904221533 | 80 | 182 | 1.0 | 6.0 | 0.00 | 0.43 | 0.43 | 81 | 1014.3 |
| 20260904221008 | 80 | 200 | 2.0 | 4.0 | 0.00 | 0.43 | 0.43 | 80 | 1014.4 |
| 20260904220507 | 80 | 297 | 1.0 | 4.0 | 0.00 | 0.43 | 0.43 | 80 | 1014.5 |
| 20260904220024 | 80 | 211 | 0.0 | 5.0 | 0.00 | 0.43 | 0.43 | 81 | 1014.4 |
| 20260904215510 | 80 | 207 | 2.0 | 5.0 | 0.00 | 0.43 | 0.43 | 82 | 1014.0 |
| 20260904215000 | 79 | 197 | 2.0 | 4.0 | 0.00 | 0.43 | 0.43 | 82 | 1014.0 |
| 20260904214503 | 79 | 162 | 2.0 | 6.0 | 0.00 | 0.43 | 0.43 | 81 | 1013.8 |
| 20260904214003 | 79 | 153 | 2.0 | 8.0 | 0.00 | 0.43 | 0.43 | 82 | 1013.6 |
| 20260904213504 | 79 | 161 | 4.0 | 8.0 | 0.00 | 0.43 | 0.43 | 84 | 1013.6 |
| 20260904213014 | 78 | 155 | 2.0 | 7.0 | 0.00 | 0.43 | 0.43 | 84 | 1013.3 |
| 20260904212505 | 77 | 167 | 2.0 | 5.0 | 0.00 | 0.43 | 0.43 | 84 | 1013.3 |
| 20260904212004 | 77 | 191 | 2.0 | 7.0 | 0.00 | 0.43 | 0.43 | 85 | 1013.3 |
| 20260904211512 | 76 | 171 | 3.0 | 9.0 | 0.00 | 0.43 | 0.43 | 85 | 1013.2 |
| 20260904211004 | 76 | 145 | 3.0 | 9.0 | 0.00 | 0.43 | 0.43 | 84 | 1013.0 |
| 20260904210506 | 76 | 145 | 3.0 | 9.0 | 0.00 | 0.43 | 0.43 | 84 | 1012.7 |
| 20260904210016 | 76 | 172 | 4.0 | 11.0 | 0.00 | 0.43 | 0.43 | 84 | 1012.9 |
| 20260904205510 | 77 | 137 | 4.0 | 11.0 | 0.00 | 0.43 | 0.43 | 83 | 1013.0 |
| 20260904205010 | 77 | 132 | 4.0 | 9.0 | 0.00 | 0.43 | 0.43 | 83 | 1013.0 |
| 20260904204528 | 77 | 145 | 3.0 | 9.0 | 0.00 | 0.43 | 0.43 | 84 | 1013.2 |
| 20260904204003 | 77 | 111 | 3.0 | 7.0 | 0.00 | 0.43 | 0.43 | 84 | 1013.6 |
| 20260904203502 | 77 | 155 | 3.0 | 4.0 | 0.00 | 0.43 | 0.43 | 1014.0 | |
| 20260904203004 | 78 | 94 | 1.0 | 2.0 | 0.00 | 0.43 | 0.43 | 84 | 1014.7 |
| 20260904202503 | 78 | 164 | 0.0 | 3.0 | 0.00 | 0.43 | 0.43 | 84 | 1015.0 |
| 20260904202003 | 78 | 105 | 0.0 | 3.0 | 0.00 | 0.43 | 0.43 | 83 | 1015.3 |
| 20260904201516 | 79 | 138 | 1.0 | 2.0 | 0.00 | 0.43 | 0.43 | 82 | 1015.5 |
| 20260904201006 | 79 | 138 | 1.0 | 2.0 | 0.00 | 0.43 | 0.43 | 80 | 1015.7 |
| 20260904200507 | 79 | 138 | 0.0 | 2.0 | 0.00 | 0.43 | 0.43 | 79 | 1015.9 |
| 20260904200016 | 79 | 138 | 0.0 | 2.0 | 0.00 | 0.43 | 0.43 | 79 | 1015.9 |
| 20260904195508 | 79 | 138 | 0.0 | 2.0 | 0.00 | 0.43 | 0.43 | 79 | 1016.0 |
| 20260904195007 | 79 | 118 | 0.0 | 2.0 | 0.00 | 0.43 | 0.43 | 78 | 1016.2 |
| 20260904194550 | 79 | 30 | 0.0 | 3.0 | 0.00 | 0.43 | 0.43 | 79 | 1016.2 |
| 20260904194011 | 79 | 328 | 0.0 | 3.0 | 0.00 | 0.43 | 0.43 | 79 | 1016.3 |
| 20260904193512 | 79 | 337 | 1.0 | 3.0 | 0.00 | 0.43 | 0.43 | 79 | 1016.4 |
| 20260904193037 | 80 | 352 | 2.0 | 3.0 | 0.00 | 0.43 | 0.43 | 78 | 1016.3 |
| 20260904192502 | 80 | 333 | 1.0 | 5.0 | 0.00 | 0.43 | 0.43 | 79 | 1016.3 |
| 20260904192005 | 80 | 360 | 2.0 | 11.0 | 0.00 | 0.43 | 0.43 | 76 | 1016.3 |
| 20260904191506 | 81 | 57 | 3.0 | 11.0 | 0.00 | 0.43 | 0.43 | 77 | 1016.5 |
| 20260904191003 | 81 | 344 | 3.0 | 12.0 | 0.00 | 0.43 | 0.43 | 78 | 1016.6 |
| 20260904190508 | 81 | 17 | 5.0 | 12.0 | 0.00 | 0.43 | 0.43 | 78 | 1016.8 |
| 20260904190012 | 81 | 337 | 4.0 | 9.0 | 0.00 | 0.43 | 0.43 | 78 | 1017.0 |
| 20260904185508 | 81 | 35 | 6.0 | 10.0 | 0.00 | 0.43 | 0.43 | 78 | 1017.0 |
| 20260904185010 | 81 | 67 | 4.0 | 10.0 | 0.00 | 0.43 | 0.43 | 79 | 1017.1 |
| 20260904184518 | 80 | 244 | 3.0 | 10.0 | 0.00 | 0.43 | 0.43 | 81 | 1017.1 |
| 20260904184010 | 80 | 14 | 2.0 | 10.0 | 0.00 | 0.43 | 0.43 | 81 | 1017.3 |
| 20260904183511 | 80 | 26 | 4.0 | 12.0 | 0.00 | 0.43 | 0.43 | 82 | 1017.3 |
| 20260904183028 | 80 | 35 | 5.0 | 11.0 | 0.00 | 0.43 | 0.43 | 81 | 1017.1 |
| 20260904182512 | 79 | 274 | 4.0 | 11.0 | 0.00 | 0.43 | 0.43 | 86 | 1017.1 |
| 20260904182016 | 79 | 360 | 7.0 | 11.0 | 0.00 | 0.43 | 0.43 | 87 | 1017.1 |
| 20260904181503 | 78 | 57 | 6.0 | 11.0 | 0.00 | 0.43 | 0.43 | 87 | 1017.2 |
| 20260904181002 | 78 | 43 | 3.0 | 11.0 | 0.00 | 0.43 | 0.43 | 89 | 1017.4 |
| 20260904180503 | 78 | 51 | 4.0 | 15.0 | 0.00 | 0.43 | 0.43 | 88 | 1017.3 |
| 20260904180008 | 78 | 13 | 4.0 | 15.0 | 0.01 | 0.43 | 0.43 | 90 | 1017.4 |
| 20260904175507 | 78 | 360 | 5.0 | 9.0 | 0.01 | 0.43 | 0.43 | 88 | 1017.5 |
| 20260904175008 | 78 | 265 | 1.0 | 4.0 | 0.02 | 0.43 | 0.43 | 91 | 1017.3 |
| 20260904174517 | 77 | 5 | 1.0 | 3.0 | 0.02 | 0.43 | 0.43 | 92 | 1017.3 |
| 20260904174009 | 77 | 263 | 2.0 | 3.0 | 0.02 | 0.43 | 0.43 | 91 | 1017.3 |
| 20260904173508 | 77 | 266 | 1.0 | 7.0 | 0.03 | 0.43 | 0.43 | 90 | 1017.1 |
| 20260904173033 | 77 | 290 | 1.0 | 7.0 | 0.04 | 0.43 | 0.43 | 91 | 1017.2 |
| 20260904172511 | 77 | 248 | 2.0 | 4.0 | 0.26 | 0.43 | 0.43 | 95 | 1017.4 |
| 20260904172013 | 77 | 323 | 0.0 | 2.0 | 0.39 | 0.43 | 0.43 | 96 | 1017.1 |
| 20260904171539 | 76 | 28 | 0.0 | 2.0 | 0.39 | 0.43 | 0.43 | 96 | 1016.8 |
| 20260904171015 | 75 | 102 | 0.0 | 2.0 | 0.39 | 0.43 | 0.43 | 95 | 1016.9 |
| 20260904170503 | 75 | 102 | 0.0 | 2.0 | 0.39 | 0.43 | 0.43 | 94 | 1016.9 |
| 20260904170010 | 75 | 102 | 0.0 | 6.0 | 0.38 | 0.42 | 0.42 | 94 | 1016.9 |
| 20260904165503 | 75 | 75 | 2.0 | 6.0 | 0.38 | 0.42 | 0.42 | 94 | 1017.0 |
| 20260904165008 | 75 | 135 | 2.0 | 4.0 | 0.37 | 0.41 | 0.41 | 93 | 1017.2 |
| 20260904164516 | 75 | 328 | 0.0 | 3.0 | 0.37 | 0.41 | 0.41 | 93 | 1017.2 |
| 20260904164009 | 75 | 66 | 0.0 | 3.0 | 0.37 | 0.41 | 0.41 | 92 | 1017.4 |
| 20260904163506 | 76 | 297 | 0.0 | 7.0 | 0.36 | 0.40 | 0.40 | 90 | 1017.6 |
| 20260904163018 | 77 | 348 | 3.0 | 12.0 | 0.35 | 0.39 | 0.39 | 86 | 1017.8 |
| 20260904162510 | 78 | 148 | 7.0 | 11.0 | 0.13 | 0.17 | 0.17 | 85 | 1018.5 |
| 20260904162017 | 79 | 218 | 1.0 | 6.0 | 0.00 | 0.04 | 0.04 | 84 | 1018.0 |
| 20260904161529 | 80 | 176 | 2.0 | 6.0 | 0.00 | 0.04 | 0.04 | 82 | 1017.8 |
| 20260904161012 | 80 | 165 | 1.0 | 4.0 | 0.00 | 0.04 | 0.04 | 83 | 1017.8 |
| 20260904160514 | 81 | 136 | 1.0 | 2.0 | 0.00 | 0.04 | 0.04 | 82 | 1018.0 |
| 20260904160036 | 81 | 207 | 1.0 | 2.0 | 0.00 | 0.04 | 0.04 | 81 | 1018.0 |
| 20260904155506 | 81 | 213 | 0.0 | 4.0 | 0.00 | 0.04 | 0.04 | 81 | 1017.8 |
| 20260904155005 | 81 | 213 | 0.0 | 4.0 | 0.00 | 0.04 | 0.04 | 83 | 1017.6 |
| 20260904154512 | 80 | 48 | 1.0 | 3.0 | 0.00 | 0.04 | 0.04 | 84 | 1017.4 |
| 20260904154007 | 80 | 352 | 0.0 | 3.0 | 0.00 | 0.04 | 0.04 | 1017.3 | |
| 20260904153506 | 80 | 336 | 2.0 | 3.0 | 0.00 | 0.04 | 0.04 | 85 | 1017.4 |
| 20260904153025 | 80 | 60 | 0.0 | 2.0 | 0.00 | 0.04 | 0.04 | 85 | 1017.3 |
| 20260904152510 | 80 | 60 | 0.0 | 2.0 | 0.00 | 0.04 | 0.04 | 85 | 1017.6 |
| 20260904152012 | 80 | 60 | 0.0 | 2.0 | 0.02 | 0.04 | 0.04 | 83 | 1017.6 |
| 20260904151538 | 80 | 60 | 0.0 | 5.0 | 0.02 | 0.04 | 0.04 | 86 | 1017.5 |
| 20260904151012 | 81 | 60 | 1.0 | 5.0 | 0.02 | 0.04 | 0.04 | 84 | 1017.2 |
| 20260904150516 | 81 | 5 | 0.0 | 2.0 | 0.03 | 0.04 | 0.04 | 86 | 1017.3 |
| 20260904150036 | 80 | 151 | 0.0 | 2.0 | 0.04 | 0.04 | 0.04 | 87 | 1016.9 |
| 20260904145515 | 80 | 342 | 0.0 | 2.0 | 0.04 | 0.04 | 0.04 | 86 | 1016.8 |
| 20260904145018 | 80 | 287 | 1.0 | 3.0 | 0.04 | 0.04 | 0.04 | 86 | 1016.8 |
| 20260904144533 | 79 | 272 | 1.0 | 3.0 | 0.04 | 0.04 | 0.04 | 88 | 1016.8 |
| 20260904144006 | 79 | 156 | 1.0 | 2.0 | 0.04 | 0.04 | 0.04 | 88 | 1016.7 |
| 20260904143508 | 78 | 306 | 0.0 | 2.0 | 0.04 | 0.04 | 0.04 | 89 | 1016.8 |
| 20260904143016 | 78 | 158 | 0.0 | 3.0 | 0.04 | 0.04 | 0.04 | 91 | 1016.8 |
| 20260904142509 | 78 | 146 | 1.0 | 3.0 | 0.04 | 0.04 | 0.04 | 91 | 1016.8 |
| 20260904142013 | 78 | 263 | 1.0 | 2.0 | 0.02 | 0.02 | 0.02 | 90 | 1016.8 |
| 20260904141525 | 78 | 5 | 0.0 | 3.0 | 0.02 | 0.02 | 0.02 | 90 | 1016.6 |
| 20260904141019 | 78 | 350 | 1.0 | 3.0 | 0.02 | 0.02 | 0.02 | 89 | 1016.2 |
| 20260904140512 | 78 | 60 | 1.0 | 6.0 | 0.01 | 0.01 | 0.01 | 88 | 1016.6 |
| 20260904140027 | 78 | 298 | 1.0 | 6.0 | 0.00 | 0.00 | 0.00 | 88 | 1016.8 |
| 20260904135515 | 79 | 259 | 2.0 | 6.0 | 0.00 | 0.00 | 0.00 | 86 | 1016.9 |
| 20260904135015 | 79 | 306 | 2.0 | 6.0 | 0.00 | 0.00 | 0.00 | 85 | 1016.7 |
| 20260904134530 | 80 | 294 | 2.0 | 4.0 | 0.00 | 0.00 | 0.00 | 84 | 1016.6 |
| 20260904134015 | 80 | 242 | 2.0 | 4.0 | 0.00 | 0.00 | 0.00 | 84 | 1016.5 |
| 20260904133518 | 80 | 334 | 0.0 | 4.0 | 0.00 | 0.00 | 0.00 | 85 | 1016.6 |
| 20260904133015 | 79 | 275 | 1.0 | 4.0 | 0.00 | 0.00 | 0.00 | 86 | 1016.1 |
| 20260904132508 | 79 | 186 | 1.0 | 4.0 | 0.00 | 0.00 | 0.00 | 87 | 1016.1 |
| 20260904132010 | 78 | 134 | 2.0 | 4.0 | 0.00 | 0.00 | 0.00 | 86 | 1016.1 |
| 20260904131523 | 78 | 145 | 1.0 | 3.0 | 0.00 | 0.00 | 0.00 | 88 | 1016.3 |
| 20260904131011 | 77 | 146 | 2.0 | 3.0 | 0.00 | 0.00 | 0.00 | 88 | 1016.3 |
| 20260904130511 | 76 | 128 | 1.0 | 2.0 | 0.00 | 0.00 | 0.00 | 89 | 1016.3 |
| 20260904130030 | 76 | 136 | 0.0 | 2.0 | 0.00 | 0.00 | 0.00 | 91 | 1016.3 |
| 20260904125515 | 75 | 136 | 1.0 | 2.0 | 0.00 | 0.00 | 0.00 | 91 | 1016.4 |
| 20260904125015 | 75 | 136 | 0.0 | 2.0 | 0.00 | 0.00 | 0.00 | 92 | 1016.4 |
| 20260904124535 | 74 | 136 | 0.0 | 2.0 | 0.00 | 0.00 | 0.00 | 92 | 1016.5 |
| 20260904124019 | 73 | 136 | 0.0 | 2.0 | 0.00 | 0.00 | 0.00 | 93 | 1016.5 |
| 20260904123522 | 73 | 136 | 0.0 | 2.0 | 0.00 | 0.00 | 0.00 | 94 | 1016.5 |
| 20260904123035 | 73 | 188 | 1.0 | 1.0 | 0.00 | 0.00 | 0.00 | 95 | 1016.4 |
| 20260904122520 | 72 | 188 | 1.0 | 1.0 | 0.00 | 0.00 | 0.00 | 96 | 1016.6 |
| 20260904122012 | 72 | 188 | 1.0 | 2.0 | 0.00 | 0.00 | 0.00 | 96 | 1016.4 |
| 20260904121527 | 72 | 188 | 0.0 | 2.0 | 0.00 | 0.00 | 0.00 | 97 | 1016.6 |
| 20260904121015 | 71 | 188 | 0.0 | 2.0 | 0.00 | 0.00 | 0.00 | 97 | 1016.5 |
| 20260904120512 | 71 | 188 | 0.0 | 2.0 | 0.00 | 0.00 | 0.00 | 97 | 1016.6 |
| 20260904120024 | 70 | 188 | 0.0 | 2.0 | 0.00 | 0.00 | 0.00 | 97 | 1016.6 |
| 20260904115512 | 70 | 188 | 0.0 | 0.0 | 0.00 | 0.00 | 0.00 | 97 | 1016.6 |
| 20260904115014 | 70 | 188 | 0.0 | 0.0 | 0.00 | 0.00 | 0.00 | 97 | 1016.4 |
| 20260904114532 | 69 | 188 | 0.0 | 1.0 | 0.00 | 0.00 | 0.00 | 96 | 1016.4 |
| 20260904114015 | 69 | 188 | 0.0 | 1.0 | 0.00 | 0.00 | 0.00 | 96 | 1016.1 |
| 20260904113514 | 69 | 188 | 0.0 | 1.0 | 0.00 | 0.00 | 0.00 | 96 | 1015.9 |
| 20260904113038 | 70 | 188 | 0.0 | 2.0 | 0.00 | 0.00 | 0.00 | 96 | 1015.7 |
| 20260904112517 | 69 | 188 | 0.0 | 2.0 | 0.00 | 0.00 | 0.00 | 96 | 1015.7 |
| 20260904112018 | 70 | 188 | 0.0 | 0.0 | 0.00 | 0.00 | 0.00 | 96 | 1015.6 |
| 20260904111534 | 70 | 188 | 0.0 | 0.0 | 0.00 | 0.00 | 0.00 | 96 | 1015.5 |
| 20260904111024 | 70 | 188 | 0.0 | 0.0 | 0.00 | 0.00 | 0.00 | 96 | 1015.6 |
| 20260904110511 | 70 | 188 | 0.0 | 0.0 | 0.00 | 0.00 | 0.00 | 96 | 1015.5 |
| 20260904110021 | 70 | 188 | 0.0 | 2.0 | 0.00 | 0.00 | 0.00 | 96 | 1015.4 |
| 20260904105510 | 70 | 188 | 0.0 | 2.0 | 0.00 | 0.00 | 0.00 | 96 | 1015.5 |
| 20260904105014 | 69 | 188 | 0.0 | 2.0 | 0.00 | 0.00 | 0.00 | 96 | 1015.4 |
| 20260904104507 | 69 | 188 | 0.0 | 2.0 | 0.00 | 0.00 | 0.00 | 96 | 1015.6 |
| 20260904104001 | 69 | 188 | 0.0 | 2.0 | 0.00 | 0.00 | 0.00 | 96 | 1015.4 |
| 20260904103501 | 69 | 188 | 0.0 | 2.0 | 0.00 | 0.00 | 0.00 | 96 | 1015.2 |
| 20260904103008 | 69 | 188 | 0.0 | 2.0 | 0.00 | 0.00 | 0.00 | 96 | 1015.3 |
| 20260904102501 | 69 | 188 | 0.0 | 2.0 | 0.00 | 0.00 | 0.00 | 96 | 1015.3 |
| 20260904102004 | 69 | 188 | 0.0 | 2.0 | 0.00 | 0.00 | 0.00 | 95 | 1015.4 |
| 20260904101509 | 69 | 188 | 0.0 | 2.0 | 0.00 | 0.00 | 0.00 | 95 | 1015.3 |